Regional Weather Roundup
Issued by NWS

Home | Current Version | Previous Version | Text Only | Print | Product List | Glossary On
Versions: 1 2 3 4 5 6 7 8 9 10 11 12 13 14 15 16 17 18 19 20 21 22 23 24 25 26 27 28 29 30 31 32 33 34 35 36 37 38 39 40 41 42 43 44 45 46 47 48 49
000
ASUS45 KPSR 251310
RWRAZ

ARIZONA REGIONAL HOURLY WEATHER ROUNDUP
NATIONAL WEATHER SERVICE TUCSON AZ
600 AM MST THU MAY 25 2017

NOTE: FAIR INDICATES FEW OR NO CLOUDS BELOW 12,000 FEET WITH NO
SIGNIFICANT WEATHER AND/OR OBSTRUCTIONS TO VISIBILITY.

AZZ001>003-036-251400-
NORTHWEST ARIZONA

CITY           SKY/WX    TMP DP  RH WIND       PRES   REMARKS
BULLHEAD CITY  CLEAR     81  30  16 S6        29.53R
KINGMAN        CLEAR     72  28  19 S20       29.66F
$$

AZZ004>008-015-016-018-251400-
NORTH CENTRAL ARIZONA

CITY           SKY/WX    TMP DP  RH WIND       PRES   REMARKS
GRAND CANYON   CLEAR     54  16  22 SW3       29.86R
WILLIAMS       SUNNY     59  10  14 S17G29    29.89S
PRESCOTT       CLEAR     61  18  18 S6        29.83R
FLAGSTAFF      CLEAR     46  21  37 S6        29.93R
PAYSON         MOSUNNY   64  21  19 CALM      29.89S
PAGE           CLEAR     74  17  11 SW10G21   29.64R
$$

AZZ009>014-017-251400-
NORTHEAST ARIZONA

CITY           SKY/WX    TMP DP  RH WIND       PRES   REMARKS
WINSLOW        PTCLDY    57  26  30 CALM      29.80S
SAINT JOHNS    MOCLDY    61  21  21 SW13      29.88S
WINDOW ROCK    CLEAR     54  25  32 S5        29.92R
SHOW LOW       MOCLDY    57  18  21 S15       29.94S
$$

AZZ023-251400-
GREATER PHOENIX AREA

CITY           SKY/WX    TMP DP  RH WIND       PRES   REMARKS
PHOENIX        MOCLDY    80  30  16 E3        29.62R
GLENDALE       MOCLDY    75  32  20 CALM      29.64
LUKE AFB       MOCLDY    76  35  22 SW6       29.62R
DEER VALLEY    MOCLDY    78  28  16 CALM      29.65R
SCOTTSDALE     MOCLDY    76  29  17 CALM      29.66R
MESA-FALCON    PTCLDY    79  30  17 SE12      29.66
MESA-GATEWAY   MOCLDY    73  30  20 SE10      29.66R
CHANDLER       CLEAR     79  27  14 SE10      29.64
$$

AZZ027-028-251400-
SOUTHWEST MARICOPA COUNTY AND PINAL COUNTY

CITY           SKY/WX    TMP DP  RH WIND       PRES   REMARKS
CASA GRANDE    MOCLDY    72  27  18 W3        29.68R
$$

AZZ503-504-507>509-251400-
SOUTHEAST ARIZONA

CITY           SKY/WX    TMP DP  RH WIND       PRES   REMARKS
TUCSON         MOCLDY    79  23  12 S12       29.78R
DAVIS-MONTHAN  MOCLDY    71  24  17 SE7       29.77R
RYAN FIELD     SUNNY     75  25  15 NW3       29.76
NOGALES        MOCLDY    72  25  17 SE9       29.87R
SIERRA VISTA   MOCLDY    73  19  13 SW18      29.89R
DOUGLAS        CLEAR     72  22  15 S8        29.88R
SAFFORD        PTCLDY    67  19  16 E7        29.76S
$$

AZZ020-021-025-026-031-251400-
SOUTHWEST ARIZONA

CITY           SKY/WX    TMP DP  RH WIND       PRES   REMARKS
YUMA           MOCLDY    70  29  21 SW5       29.61R
$$

CAZ031-033-041-043-047-048-061-251400-
SOUTHERN CALIFORNIA

CITY           SKY/WX    TMP DP  RH WIND       PRES   REMARKS
DOWNTOWN L.A.  CLOUDY    61  50  67 CALM      29.85R
L.A. AIRPORT   CLOUDY    60  50  69 SE3       29.85S
SAN DIEGO      CLOUDY    62  51  67 W5        29.88R
BURBANK        CLOUDY    58  49  72 S7        29.84R
ONTARIO        DRIZZLE   56  52  86 W7        29.85S
RIVERSIDE      CLOUDY    57  53  86 W6        29.85S
PALM SPRINGS   CLEAR     69  40  34 S6        29.60S
EL CENTRO NAS  MOCLDY    78  12   8 W21       29.60S
IMPERIAL       LGT RAIN  74  24  15 W13       29.58S
BLYTHE         PTCLDY    70  37  29 NW5       29.58R
NEEDLES        CLEAR     83  29  14 S6        29.56R
$$

NVZ020-UTZ003-251400-
SOUTHERN NEVADA-UTAH

CITY           SKY/WX    TMP DP  RH WIND       PRES   REMARKS
LAS VEGAS      MOCLDY    77  26  15 S10G16    29.53R
SALT LAKE CITY CLOUDY    58  42  55 NW10      29.71R
$$

NMZ009-TXZ055-251400-
NEW MEXICO-WEST TEXAS

CITY           SKY/WX    TMP DP  RH WIND       PRES   REMARKS
ALBUQUERQUE    PTSUNNY   68  23  18 SW8       29.85R
EL PASO        PTSUNNY   79  20  11 W13       29.84R
$$


........................KEY........................
SKY/WX - SKY CONDITION/WEATHER
TMP    - TEMPERATURE IN FAHRENHEIT
DP     - DEWPOINT IN FAHRENHEIT
RH     - RELATIVE HUMIDITY IN PERCENT
WIND   - DIRECTION AND SPEED IN MILES PER HOUR (MPH)
VRB    - VARIABLE WIND DIRECTION
PRES   - MEAN SEA LEVEL PRESSURE IN INCHES OF MERCURY
         F - FALLING PRESSURE   R - RISING PRESSURE
         S - STEADY PRESSURE
VSB    - VISIBILITY IN MILES
HX     - HEAT INDEX IN FAHRENHEIT
WCI    - WIND CHILL INDEX IN FAHRENHEIT
TC     - TEMPERATURE IN CELSIUS WHICH IS ALSO KNOWN AS
         TEMPERATURE IN CENTIGRADE
AFB    - AIR FORCE BASE
         LUKE AFB IS LUKE AIR FORCE BASE
         DAVIS-MONTHAN IS DAVIS-MONTHAN AIR FORCE BASE
NAS    - NAVAL AIR STATION
         EL CENTRO NAS IS EL CENTRO NAVAL AIR STATION
N/A    - NOT AVAILABLE





USA.gov is the U.S. government's official web portal to all federal, state and local government web resources and services.